Location: Palomar Mountain Lodge
(33.3110°N, 116.8495°W)
Time: 10:13:21
(UTC-07:00)

OAO 2 Rocket - Pass Details

Date: 14 June 2018
Orbit: 676 x 746 km, 35.0° (Epoch: 16 October)

Event Time Altitude Azimuth Distance (km) Brightness Sun altitude
Rises 21:47:28 0° 282° (WNW) 3,172 7.6 -18.9°
Reaches altitude 10° 21:50:00 10° 276° (W) 2,250 6.6 -19.3°
Maximum altitude 21:55:03 45° 205° (SSW) 995 3.9 -20.0°
Enters shadow 21:56:17 38° 168° (SSE) 1,110 3.9 -20.2°
